Regional Weather Roundup
Issued by NWS Cleveland, OH

Home | Current Version | Previous Version | Graphics & Text | Print | Product List | Glossary On
Versions: 1 2 3 4 5 6 7 8 9 10 11 12 13 14 15 16 17 18 19 20 21 22 23 24 25 26 27 28 29 30 31 32 33 34 35 36 37 38 39 40 41 42 43 44 45 46 47 48 49 50
000
ASUS41 KCLE 291010
RWRCLE
OHIO REGIONAL WEATHER ROUNDUP
NATIONAL WEATHER SERVICE CLEVELAND, OH
600 AM EDT MON MAY 29 2017

NOTE: "FAIR" INDICATES FEW OR NO CLOUDS BELOW 12,000 FEET WITH NO
SIGNIFICANT WEATHER AND/OR OBSTRUCTIONS TO VISIBILITY.

OHZ001>008-015>018-024>027-034-035-043-044-291100-
   NORTHWEST OHIO

CITY           SKY/WX    TMP DP  RH WIND       PRES   REMARKS
DEFIANCE       CLEAR     55  54  96 CALM      29.80S FOG
FINDLAY        CLEAR     60  56  86 SW7       29.80S
TOLEDO EXPRESS CLEAR     56  56 100 W8        29.78R
TOLEDO EXEC    CLEAR     59  57  93 SW8       29.79R
LIMA           CLEAR     60  59  96 SW7       29.83R
$$

OHZ009>014-019>023-028>033-038-089-291100-
   NORTHEAST OHIO

CITY           SKY/WX    TMP DP  RH WIND       PRES   REMARKS
CLE-HOPKINS    PTCLDY    61  58  90 SW7       29.80R
CLE-LAKEFRONT  CLEAR     61  57  87 SW12      29.77R
CUY CO. ARPT   NOT AVBL
LORAIN-ELYRIA  CLEAR     58  52  80 W8        29.80R
ASHTABULA      CLOUDY    61  60  97 SW9       29.76R
AKRON-CANTON   PTCLDY    59  56  89 SW6       29.81R
WOOSTER        CLEAR     57  55  93 SW5       29.82R
MANSFIELD      PTCLDY    57  56  96 SW6       29.83R
YOUNGSTOWN     CLOUDY    60  58  92 SW10      29.79R
$$

OHZ042-051>053-060>062-070>072-077>081-291100-
  SOUTHWEST OHIO

CITY           SKY/WX    TMP DP  RH WIND       PRES   REMARKS
CINC-COVINGTON FOG       62  62 100 SW8       29.89R VSB<1/4
CINC-LUNKEN    FOG       59  59 100 CALM      29.90R VSB 1
HAMILTON       FOG       57  57 100 CALM      29.89R VSB 1/4
DAYTON         CLEAR     60  58  92 SW8       29.87R
WRIGHT-PAT AFB PTCLDY    58  58 100 CALM      29.86R FOG
DAYTON GENERAL FOG       59  58  96 S5        29.88R VSB 3/4
WILMINGTON     CLOUDY    59  59 100 SW6       29.88R FOG
$$

OHZ036-037-039>041-045>050-054>059-063>069-073>076-082>088-291100-
  CENTRAL AND SOUTHEAST OHIO

CITY           SKY/WX    TMP DP  RH WIND       PRES   REMARKS
COLUMBUS       CLEAR     61  61 100 SW3       29.84R
OSU AIRPORT    CLEAR     60  60 100 W6        29.84R
BOLTON FIELD   CLEAR     59  59  99 W6        29.86R
RICKENBACK AFB CLEAR     60  60 100 SW5       29.85R
NEWARK         PTCLDY    61  58  90 S3        29.84R
MARION         CLEAR     59  57  93 W7        29.84R
LANCASTER      CLOUDY    63  60  90 SW5       29.85R
ZANESVILLE     PTCLDY    61  59  93 W6        29.84R
NEW PHILLY     NOT AVBL
$$




USA.gov is the U.S. government's official web portal to all federal, state and local government web resources and services.